Time,TemperatureF,DewpointF,PressureIn,WindDirection,WindDirectionDegrees,WindSpeedMPH,WindSpeedGustMPH,Humidity,HourlyPrecipIn,Conditions,Clouds,dailyrainin,SolarRadiationWatts/m^2,SoftwareType,DateUTC
2013-02-24 00:00:00,26.0,19.0,-100.00,WNW,292,6.0,-999.0,75,-99.99,,,-99.99,0.000000,,2013-02-24 05:00:00,
2013-02-24 00:42:00,26.0,19.0,-100.00,WNW,292,6.0,-999.0,75,-99.99,,,-99.99,0.000000,,2013-02-24 05:42:00,
2013-02-24 00:52:00,26.0,19.0,-100.00,WNW,292,6.0,-999.0,75,-99.99,,,-99.99,0.000000,,2013-02-24 05:52:00,
2013-02-24 01:00:00,24.0,18.0,-100.00,West,270,5.0,-999.0,78,-99.99,,,-99.99,0.000000,,2013-02-24 06:00:00,
2013-02-24 01:42:00,24.0,18.0,-100.00,West,270,5.0,-999.0,78,-99.99,,,-99.99,0.000000,,2013-02-24 06:42:00,
2013-02-24 01:52:00,24.0,18.0,-100.00,West,270,5.0,-999.0,78,-99.99,,,-99.99,0.000000,,2013-02-24 06:52:00,
2013-02-24 02:00:00,22.0,17.0,-100.00,West,270,4.0,-999.0,81,-99.99,,,-99.99,0.000000,,2013-02-24 07:00:00,
2013-02-24 02:42:00,22.0,17.0,-100.00,West,270,4.0,-999.0,81,-99.99,,,-99.99,0.000000,,2013-02-24 07:42:00,
2013-02-24 02:52:00,22.0,17.0,-100.00,West,270,4.0,-999.0,81,-99.99,,,-99.99,0.000000,,2013-02-24 07:52:00,
2013-02-24 03:00:00,21.0,16.0,-100.00,WSW,247,5.0,-999.0,82,-99.99,,,-99.99,0.000000,,2013-02-24 08:00:00,
2013-02-24 03:42:00,21.0,16.0,-100.00,WSW,247,5.0,-999.0,82,-99.99,,,-99.99,0.000000,,2013-02-24 08:42:00,
2013-02-24 03:54:00,21.0,16.0,-100.00,WSW,247,5.0,-999.0,82,-99.99,,,-99.99,0.000000,,2013-02-24 08:54:00,
2013-02-24 04:00:00,22.0,17.0,-100.00,West,270,5.0,-999.0,79,-99.99,,,-99.99,0.000000,,2013-02-24 09:00:00,
2013-02-24 04:42:00,22.0,17.0,-100.00,West,270,5.0,-999.0,79,-99.99,,,-99.99,0.000000,,2013-02-24 09:42:00,
2013-02-24 04:52:00,22.0,17.0,-100.00,West,270,5.0,-999.0,79,-99.99,,,-99.99,0.000000,,2013-02-24 09:52:00,
2013-02-24 05:00:00,18.0,14.0,-100.00,WSW,247,2.0,-999.0,84,-99.99,,,-99.99,0.000000,,2013-02-24 10:00:00,
2013-02-24 05:42:00,18.0,14.0,-100.00,WSW,247,2.0,-999.0,84,-99.99,,,-99.99,0.000000,,2013-02-24 10:42:00,
2013-02-24 05:52:00,18.0,14.0,-100.00,WSW,247,2.0,-999.0,84,-99.99,,,-99.99,0.000000,,2013-02-24 10:52:00,
2013-02-24 06:00:00,17.0,14.0,-100.00,WSW,247,1.0,-999.0,88,-99.99,,,-99.99,0.000000,,2013-02-24 11:00:00,
2013-02-24 06:42:00,17.0,14.0,-100.00,WSW,247,1.0,-999.0,88,-99.99,,,-99.99,0.000000,,2013-02-24 11:42:00,
2013-02-24 06:53:00,17.0,14.0,-100.00,WSW,247,1.0,-999.0,88,-99.99,,,-99.99,0.000000,,2013-02-24 11:53:00,
2013-02-24 07:00:00,23.0,18.0,-100.00,West,270,7.0,-999.0,80,-99.99,,,-99.99,0.000000,,2013-02-24 12:00:00,
2013-02-24 07:46:00,23.0,18.0,-100.00,West,270,7.0,-999.0,80,-99.99,,,-99.99,0.000000,,2013-02-24 12:46:00,
2013-02-24 07:59:00,23.0,18.0,-100.00,West,270,7.0,-999.0,80,-99.99,,,-99.99,0.000000,,2013-02-24 12:59:00,
2013-02-24 08:00:00,23.0,18.0,-100.00,West,270,6.0,-999.0,80,-99.99,,,-99.99,20.879999,,2013-02-24 13:00:00,
2013-02-24 08:45:00,23.0,18.0,-100.00,West,270,6.0,-999.0,80,-99.99,,,-99.99,20.879999,,2013-02-24 13:45:00,
2013-02-24 08:56:00,23.0,18.0,-100.00,West,270,6.0,-999.0,80,-99.99,,,-99.99,20.879999,,2013-02-24 13:56:00,
2013-02-24 09:00:00,23.0,18.0,-100.00,WSW,247,6.0,-999.0,80,-99.99,,,-99.99,170.520004,,2013-02-24 14:00:00,
2013-02-24 09:45:00,23.0,18.0,-100.00,WSW,247,6.0,-999.0,80,-99.99,,,-99.99,170.520004,,2013-02-24 14:45:00,
2013-02-24 09:55:00,23.0,18.0,-100.00,WSW,247,6.0,-999.0,80,-99.99,,,-99.99,170.520004,,2013-02-24 14:55:00,
2013-02-24 10:00:00,27.0,20.0,-100.00,West,270,9.0,-999.0,77,-99.99,,,-99.99,327.119995,,2013-02-24 15:00:00,
2013-02-24 10:42:00,27.0,20.0,-100.00,West,270,9.0,-999.0,77,-99.99,,,-99.99,327.119995,,2013-02-24 15:42:00,
2013-02-24 10:53:00,27.0,20.0,-100.00,West,270,9.0,-999.0,77,-99.99,,,-99.99,327.119995,,2013-02-24 15:53:00,
2013-02-24 11:00:00,29.0,22.0,-100.00,WNW,292,11.0,-999.0,74,-99.99,,,-99.99,403.679993,,2013-02-24 16:00:00,
2013-02-24 11:42:00,29.0,22.0,-100.00,WNW,292,11.0,-999.0,74,-99.99,,,-99.99,403.679993,,2013-02-24 16:42:00,
2013-02-24 11:52:00,29.0,22.0,-100.00,WNW,292,11.0,-999.0,74,-99.99,,,-99.99,403.679993,,2013-02-24 16:52:00,
2013-02-24 12:00:00,31.0,23.0,-100.00,WNW,292,11.0,-999.0,72,-99.99,,,-99.99,464.000000,,2013-02-24 17:00:00,
2013-02-24 12:42:00,31.0,23.0,-100.00,WNW,292,11.0,-999.0,72,-99.99,,,-99.99,464.000000,,2013-02-24 17:42:00,
2013-02-24 12:53:00,31.0,23.0,-100.00,WNW,292,11.0,-999.0,72,-99.99,,,-99.99,464.000000,,2013-02-24 17:53:00,
2013-02-24 13:00:00,34.0,24.0,-100.00,WNW,292,11.0,-999.0,67,-99.99,,,-99.99,683.239990,,2013-02-24 18:00:00,
2013-02-24 13:42:00,34.0,24.0,-100.00,WNW,292,11.0,-999.0,67,-99.99,,,-99.99,683.239990,,2013-02-24 18:42:00,
2013-02-24 13:52:00,34.0,24.0,-100.00,WNW,292,11.0,-999.0,67,-99.99,,,-99.99,683.239990,,2013-02-24 18:52:00,
2013-02-24 14:00:00,35.0,24.0,-100.00,NW,315,11.0,-999.0,63,-99.99,,,-99.99,506.920013,,2013-02-24 19:00:00,
2013-02-24 14:42:00,35.0,24.0,-100.00,NW,315,11.0,-999.0,63,-99.99,,,-99.99,506.920013,,2013-02-24 19:42:00,
2013-02-24 14:52:00,35.0,24.0,-100.00,NW,315,11.0,-999.0,63,-99.99,,,-99.99,506.920013,,2013-02-24 19:52:00,
2013-02-24 15:00:00,36.0,25.0,-100.00,WNW,292,12.0,-999.0,65,-99.99,,,-99.99,613.640015,,2013-02-24 20:00:00,
2013-02-24 15:42:00,36.0,25.0,-100.00,WNW,292,12.0,-999.0,65,-99.99,,,-99.99,613.640015,,2013-02-24 20:42:00,
2013-02-24 15:52:00,36.0,25.0,-100.00,WNW,292,12.0,-999.0,65,-99.99,,,-99.99,613.640015,,2013-02-24 20:52:00,
2013-02-24 16:00:00,34.0,24.0,-100.00,WNW,292,9.0,-999.0,66,-99.99,,,-99.99,139.199997,,2013-02-24 21:00:00,
2013-02-24 16:42:00,34.0,24.0,-100.00,WNW,292,9.0,-999.0,66,-99.99,,,-99.99,139.199997,,2013-02-24 21:42:00,
2013-02-24 16:52:00,34.0,24.0,-100.00,WNW,292,9.0,-999.0,66,-99.99,,,-99.99,139.199997,,2013-02-24 21:52:00,
2013-02-24 17:00:00,34.0,24.0,-100.00,WNW,292,7.0,-999.0,68,-99.99,,,-99.99,51.040001,,2013-02-24 22:00:00,
2013-02-24 17:42:00,34.0,24.0,-100.00,WNW,292,7.0,-999.0,68,-99.99,,,-99.99,51.040001,,2013-02-24 22:42:00,
2013-02-24 17:52:00,34.0,24.0,-100.00,WNW,292,7.0,-999.0,68,-99.99,,,-99.99,51.040001,,2013-02-24 22:52:00,
2013-02-24 18:00:00,33.0,26.0,-100.00,WNW,292,7.0,-999.0,73,-99.99,,,-99.99,48.720001,,2013-02-24 23:00:00,
2013-02-24 18:42:00,33.0,26.0,-100.00,WNW,292,7.0,-999.0,73,-99.99,,,-99.99,48.720001,,2013-02-24 23:42:00,
2013-02-24 18:52:00,33.0,26.0,-100.00,WNW,292,7.0,-999.0,73,-99.99,,,-99.99,48.720001,,2013-02-24 23:52:00,
2013-02-24 19:00:00,32.0,26.0,-100.00,WNW,292,5.0,-999.0,76,-99.99,,,-99.99,2.320000,,2013-02-25 00:00:00,
2013-02-24 19:42:00,32.0,26.0,-100.00,WNW,292,5.0,-999.0,76,-99.99,,,-99.99,2.320000,,2013-02-25 00:42:00,
2013-02-24 19:52:00,32.0,26.0,-100.00,WNW,292,5.0,-999.0,76,-99.99,,,-99.99,2.320000,,2013-02-25 00:52:00,
2013-02-24 20:00:00,31.0,26.0,-100.00,West,270,2.0,-999.0,82,-99.99,,,-99.99,0.000000,,2013-02-25 01:00:00,
2013-02-24 20:42:00,31.0,26.0,-100.00,West,270,2.0,-999.0,82,-99.99,,,-99.99,0.000000,,2013-02-25 01:42:00,
2013-02-24 20:52:00,31.0,26.0,-100.00,West,270,2.0,-999.0,82,-99.99,,,-99.99,0.000000,,2013-02-25 01:52:00,
2013-02-24 21:00:00,28.0,25.0,-100.00,SSW,202,0.0,-999.0,86,-99.99,,,-99.99,0.000000,,2013-02-25 02:00:00,
2013-02-24 21:42:00,28.0,25.0,-100.00,SSW,202,0.0,-999.0,86,-99.99,,,-99.99,0.000000,,2013-02-25 02:42:00,
2013-02-24 21:52:00,28.0,25.0,-100.00,SSW,202,0.0,-999.0,86,-99.99,,,-99.99,0.000000,,2013-02-25 02:52:00,
2013-02-24 22:00:00,27.0,23.0,-100.00,SW,225,0.0,-999.0,86,-99.99,,,-99.99,0.000000,,2013-02-25 03:00:00,
2013-02-24 22:42:00,27.0,23.0,-100.00,SW,225,0.0,-999.0,86,-99.99,,,-99.99,0.000000,,2013-02-25 03:42:00,
2013-02-24 22:52:00,27.0,23.0,-100.00,SW,225,0.0,-999.0,86,-99.99,,,-99.99,0.000000,,2013-02-25 03:52:00,
2013-02-24 23:00:00,27.0,24.0,-100.00,WSW,247,0.0,-999.0,88,-99.99,,,-99.99,0.000000,,2013-02-25 04:00:00,
2013-02-24 23:42:00,27.0,24.0,-100.00,WSW,247,0.0,-999.0,88,-99.99,,,-99.99,0.000000,,2013-02-25 04:42:00,
2013-02-24 23:52:00,27.0,24.0,-100.00,WSW,247,0.0,-999.0,88,-99.99,,,-99.99,0.000000,,2013-02-25 04:52:00,